owner,sensor,date,latitude,longitude,vertical_datum,mass_concentration_of_oxygen_in_sea_water,qcFlag 
DISL,ioos:station:DISL:DISL:1,2013-03-01T00:00:00Z,30.2513,-88.0778,1.8522696,10.01,1111122 
DISL,ioos:station:DISL:DISL:1,2013-03-01T00:30:00Z,30.2513,-88.0778,1.8367249,9.91,1111122 
DISL,ioos:station:DISL:DISL:1,2013-03-01T01:00:00Z,30.2513,-88.0778,1.8095976,9.94,1111122 
DISL,ioos:station:DISL:DISL:1,2013-03-01T01:30:00Z,30.2513,-88.0778,1.7971008,10.01,1111122 
DISL,ioos:station:DISL:DISL:1,2013-03-01T02:00:00Z,30.2513,-88.0778,1.7785081,10.03,1111122 
DISL,ioos:station:DISL:DISL:1,2013-03-01T02:30:00Z,30.2513,-88.0778,1.7660112,10.01,1111122 
DISL,ioos:station:DISL:DISL:1,2013-03-01T03:00:00Z,30.2513,-88.0778,1.7559528,10.0,1111122 
DISL,ioos:station:DISL:DISL:1,2013-03-01T03:30:00Z,30.2513,-88.0778,1.7446752,10.0,1111122 
DISL,ioos:station:DISL:DISL:1,2013-03-01T04:00:00Z,30.2513,-88.0778,1.748028,9.89,1111122 
DISL,ioos:station:DISL:DISL:1,2013-03-01T04:30:00Z,30.2513,-88.0778,1.7532096,9.92,1111122 
DISL,ioos:station:DISL:DISL:1,2013-03-01T05:00:00Z,30.2513,-88.0778,1.7324833,9.95,1111122 
DISL,ioos:station:DISL:DISL:1,2013-03-01T05:30:00Z,30.2513,-88.0778,1.7428464,9.95,1111122 
DISL,ioos:station:DISL:DISL:1,2013-03-01T06:00:00Z,30.2513,-88.0778,1.7580864,9.95,1111122 
DISL,ioos:station:DISL:DISL:1,2013-03-01T06:30:00Z,30.2513,-88.0778,1.7681448,9.96,1111122 
DISL,ioos:station:DISL:DISL:1,2013-03-01T07:00:00Z,30.2513,-88.0778,1.7397984,9.93,1111122 
DISL,ioos:station:DISL:DISL:1,2013-03-01T07:30:00Z,30.2513,-88.0778,1.7580864,9.99,1111122 
DISL,ioos:station:DISL:DISL:1,2013-03-01T08:00:00Z,30.2513,-88.0778,1.7623537,9.99,1111122 
DISL,ioos:station:DISL:DISL:1,2013-03-01T08:30:00Z,30.2513,-88.0778,1.8452592,10.02,1111122 
DISL,ioos:station:DISL:DISL:1,2013-03-01T09:00:00Z,30.2513,-88.0778,1.7489424,10.01,1111122 
DISL,ioos:station:DISL:DISL:1,2013-03-01T09:30:00Z,30.2513,-88.0778,1.764792,10.03,1111122 
DISL,ioos:station:DISL:DISL:1,2013-03-01T10:00:00Z,30.2513,-88.0778,1.77546,10.03,1111122 
DISL,ioos:station:DISL:DISL:1,2013-03-01T10:30:00Z,30.2513,-88.0778,1.7504665,9.96,1111122 
DISL,ioos:station:DISL:DISL:1,2013-03-01T11:00:00Z,30.2513,-88.0778,1.7254728,9.98,1111122 
DISL,ioos:station:DISL:DISL:1,2013-03-01T11:30:00Z,30.2513,-88.0778,1.7827752,9.92,1111122 
DISL,ioos:station:DISL:DISL:1,2013-03-01T12:00:00Z,30.2513,-88.0778,1.7794224,9.96,1111122 
DISL,ioos:station:DISL:DISL:1,2013-03-01T12:30:00Z,30.2513,-88.0778,1.7961864,9.98,1111122 
DISL,ioos:station:DISL:DISL:1,2013-03-01T13:00:00Z,30.2513,-88.0778,1.802892,9.97,1111122 
DISL,ioos:station:DISL:DISL:1,2013-03-01T13:30:00Z,30.2513,-88.0778,1.7900904,9.97,1111122 
DISL,ioos:station:DISL:DISL:1,2013-03-01T14:00:00Z,30.2513,-88.0778,1.8071592,10.0,1111122 
DISL,ioos:station:DISL:DISL:1,2013-03-01T14:30:00Z,30.2513,-88.0778,1.808988,10.0,1111122 
DISL,ioos:station:DISL:DISL:1,2013-03-01T15:00:00Z,30.2513,-88.0778,1.8632424,9.92,1111122 
DISL,ioos:station:DISL:DISL:1,2013-03-01T15:30:00Z,30.2513,-88.0778,1.8659856,9.88,1111122 
DISL,ioos:station:DISL:DISL:1,2013-03-01T16:00:00Z,30.2513,-88.0778,1.8617184,9.88,1111122 
DISL,ioos:station:DISL:DISL:1,2013-03-01T16:30:00Z,30.2513,-88.0778,1.8842736,9.84,1111122 
DISL,ioos:station:DISL:DISL:1,2013-03-01T17:00:00Z,30.2513,-88.0778,1.9117056,9.84,1111122 
DISL,ioos:station:DISL:DISL:1,2013-03-01T17:30:00Z,30.2513,-88.0778,1.9031712,9.92,1111122 
DISL,ioos:station:DISL:DISL:1,2013-03-01T18:00:00Z,30.2513,-88.0778,1.9507201,9.89,1111122 
DISL,ioos:station:DISL:DISL:1,2013-03-01T18:30:00Z,30.2513,-88.0778,1.9373088,10.04,1111122 
DISL,ioos:station:DISL:DISL:1,2013-03-01T19:00:00Z,30.2513,-88.0778,1.9345657,10.09,1111122 
DISL,ioos:station:DISL:DISL:1,2013-03-01T19:30:00Z,30.2513,-88.0778,1.9406617,10.16,1111122 
DISL,ioos:station:DISL:DISL:1,2013-03-01T20:00:00Z,30.2513,-88.0778,1.9458432,10.54,1111122 
DISL,ioos:station:DISL:DISL:1,2013-03-01T20:30:00Z,30.2513,-88.0778,1.9302984,10.91,1111122 
DISL,ioos:station:DISL:DISL:1,2013-03-01T21:00:00Z,30.2513,-88.0778,1.9062192,11.09,1111122 
DISL,ioos:station:DISL:DISL:1,2013-03-01T21:30:00Z,30.2513,-88.0778,1.9104865,11.25,1111122 
DISL,ioos:station:DISL:DISL:1,2013-03-01T22:00:00Z,30.2513,-88.0778,1.8921984,11.3,1111122 
DISL,ioos:station:DISL:DISL:1,2013-03-01T22:30:00Z,30.2513,-88.0778,1.8769584,11.42,1111122 
DISL,ioos:station:DISL:DISL:1,2013-03-01T23:00:00Z,30.2513,-88.0778,1.8641568,11.45,1111122 
DISL,ioos:station:DISL:DISL:1,2013-03-01T23:30:00Z,30.2513,-88.0778,1.8675096,11.54,1111122 
DISL,ioos:station:DISL:DISL:1,2013-03-02T00:00:00Z,30.2513,-88.0778,1.8416016,11.4,1111122 
DISL,ioos:station:DISL:DISL:1,2013-03-02T00:30:00Z,30.2513,-88.0778,1.8294096,11.1,1111122 
DISL,ioos:station:DISL:DISL:1,2013-03-02T01:00:00Z,30.2513,-88.0778,1.8175224,11.01,1111122 
DISL,ioos:station:DISL:DISL:1,2013-03-02T01:30:00Z,30.2513,-88.0778,1.7980152,10.84,1111122 
DISL,ioos:station:DISL:DISL:1,2013-03-02T02:00:00Z,30.2513,-88.0778,1.7846041,10.33,1111122 
DISL,ioos:station:DISL:DISL:1,2013-03-02T02:30:00Z,30.2513,-88.0778,1.7721072,10.24,1111122 
DISL,ioos:station:DISL:DISL:1,2013-03-02T03:00:00Z,30.2513,-88.0778,1.7559528,10.25,1111122 
DISL,ioos:station:DISL:DISL:1,2013-03-02T03:30:00Z,30.2513,-88.0778,1.7340072,10.3,1111122 
DISL,ioos:station:DISL:DISL:1,2013-03-02T04:00:00Z,30.2513,-88.0778,1.70688,10.34,1111122 
DISL,ioos:station:DISL:DISL:1,2013-03-02T04:30:00Z,30.2513,-88.0778,1.6965169,10.39,1111122 
DISL,ioos:station:DISL:DISL:1,2013-03-02T05:00:00Z,30.2513,-88.0778,1.671828,10.44,1111122 
DISL,ioos:station:DISL:DISL:1,2013-03-02T05:30:00Z,30.2513,-88.0778,1.5718536,10.25,1111122 
DISL,ioos:station:DISL:DISL:1,2013-03-02T06:00:00Z,30.2513,-88.0778,1.63068,10.14,1111122 
DISL,ioos:station:DISL:DISL:1,2013-03-02T06:30:00Z,30.2513,-88.0778,1.6373857,9.97,1111122 
DISL,ioos:station:DISL:DISL:1,2013-03-02T07:00:00Z,30.2513,-88.0778,1.6194025,10.01,1111122 
DISL,ioos:station:DISL:DISL:1,2013-03-02T07:30:00Z,30.2513,-88.0778,1.6422625,10.06,1111122 
DISL,ioos:station:DISL:DISL:1,2013-03-02T08:00:00Z,30.2513,-88.0778,1.6474441,10.14,1111122 
DISL,ioos:station:DISL:DISL:1,2013-03-02T08:30:00Z,30.2513,-88.0778,1.6724377,10.16,1111122 
DISL,ioos:station:DISL:DISL:1,2013-03-02T09:00:00Z,30.2513,-88.0778,1.6690848,10.15,1111122 
DISL,ioos:station:DISL:DISL:1,2013-03-02T09:30:00Z,30.2513,-88.0778,1.6730472,10.15,1111122 
DISL,ioos:station:DISL:DISL:1,2013-03-02T10:00:00Z,30.2513,-88.0778,1.6821913,10.11,1111122 
DISL,ioos:station:DISL:DISL:1,2013-03-02T10:30:00Z,30.2513,-88.0778,1.7047464,10.15,1111122 
DISL,ioos:station:DISL:DISL:1,2013-03-02T11:00:00Z,30.2513,-88.0778,1.7080992,10.14,1111122 
DISL,ioos:station:DISL:DISL:1,2013-03-02T11:30:00Z,30.2513,-88.0778,1.7349216,10.17,1111122 
DISL,ioos:station:DISL:DISL:1,2013-03-02T12:00:00Z,30.2513,-88.0778,1.7437608,10.28,1111122 
DISL,ioos:station:DISL:DISL:1,2013-03-02T12:30:00Z,30.2513,-88.0778,1.7413224,10.27,1111122 
DISL,ioos:station:DISL:DISL:1,2013-03-02T13:00:00Z,30.2513,-88.0778,1.7577816,10.3,1111122 
DISL,ioos:station:DISL:DISL:1,2013-03-02T13:30:00Z,30.2513,-88.0778,1.7760696,10.33,1111122 
DISL,ioos:station:DISL:DISL:1,2013-03-02T14:00:00Z,30.2513,-88.0778,1.7986249,10.36,1111122 
DISL,ioos:station:DISL:DISL:1,2013-03-02T14:30:00Z,30.2513,-88.0778,1.8321528,10.39,1111122 
DISL,ioos:station:DISL:DISL:1,2013-03-02T15:00:00Z,30.2513,-88.0778,1.8403825,10.43,1111122 
DISL,ioos:station:DISL:DISL:1,2013-03-02T15:30:00Z,30.2513,-88.0778,1.8793968,10.5,1111122 
DISL,ioos:station:DISL:DISL:1,2013-03-02T16:00:00Z,30.2513,-88.0778,1.8909792,10.55,1111122 
DISL,ioos:station:DISL:DISL:1,2013-03-02T16:30:00Z,30.2513,-88.0778,1.914144,10.66,1111122 
DISL,ioos:station:DISL:DISL:1,2013-03-02T17:00:00Z,30.2513,-88.0778,1.9159727,10.8,1111122 
DISL,ioos:station:DISL:DISL:1,2013-03-02T17:30:00Z,30.2513,-88.0778,1.923288,10.7,1111122 
DISL,ioos:station:DISL:DISL:1,2013-03-02T18:00:00Z,30.2513,-88.0778,1.9485865,10.05,1111122 
DISL,ioos:station:DISL:DISL:1,2013-03-02T18:30:00Z,30.2513,-88.0778,1.941576,10.78,1111122 
DISL,ioos:station:DISL:DISL:1,2013-03-02T19:00:00Z,30.2513,-88.0778,1.9860767,11.47,1111122 
DISL,ioos:station:DISL:DISL:1,2013-03-02T19:30:00Z,30.2513,-88.0778,1.9592544,11.82,1111122 
DISL,ioos:station:DISL:DISL:1,2013-03-02T20:00:00Z,30.2513,-88.0778,1.9815048,11.9,1111122 
DISL,ioos:station:DISL:DISL:1,2013-03-02T20:30:00Z,30.2513,-88.0778,1.932432,11.87,1111122 
DISL,ioos:station:DISL:DISL:1,2013-03-02T21:00:00Z,30.2513,-88.0778,1.9519391,11.92,1111122 
DISL,ioos:station:DISL:DISL:1,2013-03-02T21:30:00Z,30.2513,-88.0778,1.9363945,11.91,1111122 
DISL,ioos:station:DISL:DISL:1,2013-03-02T22:00:00Z,30.2513,-88.0778,1.888236,11.89,1111122 
DISL,ioos:station:DISL:DISL:1,2013-03-02T22:30:00Z,30.2513,-88.0778,1.8806161,11.77,1111122 
DISL,ioos:station:DISL:DISL:1,2013-03-02T23:00:00Z,30.2513,-88.0778,1.85928,11.68,1111122 
DISL,ioos:station:DISL:DISL:1,2013-03-02T23:30:00Z,30.2513,-88.0778,1.8260568,11.62,1111122 
DISL,ioos:station:DISL:DISL:1,2013-03-03T00:00:00Z,30.2513,-88.0778,1.7934432,11.48,1111122 
DISL,ioos:station:DISL:DISL:1,2013-03-03T00:30:00Z,30.2513,-88.0778,1.7562577,11.4,1111122 
DISL,ioos:station:DISL:DISL:1,2013-03-03T01:00:00Z,30.2513,-88.0778,1.7401032,11.37,1111122 
DISL,ioos:station:DISL:DISL:1,2013-03-03T01:30:00Z,30.2513,-88.0778,1.7245585,11.19,1111122 
DISL,ioos:station:DISL:DISL:1,2013-03-03T02:00:00Z,30.2513,-88.0778,1.7248632,11.0,1111122 
DISL,ioos:station:DISL:DISL:1,2013-03-03T02:30:00Z,30.2513,-88.0778,1.6541497,10.86,1111122 
DISL,ioos:station:DISL:DISL:1,2013-03-03T03:00:00Z,30.2513,-88.0778,1.6514065,10.77,1111122 
DISL,ioos:station:DISL:DISL:1,2013-03-03T03:30:00Z,30.2513,-88.0778,1.6050768,10.64,1111122 
DISL,ioos:station:DISL:DISL:1,2013-03-03T04:00:00Z,30.2513,-88.0778,1.6035528,10.73,1111122 
DISL,ioos:station:DISL:DISL:1,2013-03-03T04:30:00Z,30.2513,-88.0778,1.5319248,10.78,1111122 
DISL,ioos:station:DISL:DISL:1,2013-03-03T05:00:00Z,30.2513,-88.0778,1.5715488,10.78,1111122 
DISL,ioos:station:DISL:DISL:1,2013-03-03T05:30:00Z,30.2513,-88.0778,1.4593824,10.85,1111122 
DISL,ioos:station:DISL:DISL:1,2013-03-03T06:00:00Z,30.2513,-88.0778,1.5459456,10.81,1111122 
DISL,ioos:station:DISL:DISL:1,2013-03-03T06:30:00Z,30.2513,-88.0778,1.5157704,10.86,1111122 
DISL,ioos:station:DISL:DISL:1,2013-03-03T07:00:00Z,30.2513,-88.0778,1.5331441,10.81,1111122 
DISL,ioos:station:DISL:DISL:1,2013-03-03T07:30:00Z,30.2513,-88.0778,1.5188184,10.77,1111122 
DISL,ioos:station:DISL:DISL:1,2013-03-03T08:00:00Z,30.2513,-88.0778,1.5334488,10.82,1111122 
DISL,ioos:station:DISL:DISL:1,2013-03-03T08:30:00Z,30.2513,-88.0778,1.5383255,11.14,1111122 
DISL,ioos:station:DISL:DISL:1,2013-03-03T09:00:00Z,30.2513,-88.0778,1.5322297,11.03,1111122 
DISL,ioos:station:DISL:DISL:1,2013-03-03T09:30:00Z,30.2513,-88.0778,1.5197328,10.97,1111122 
DISL,ioos:station:DISL:DISL:1,2013-03-03T10:00:00Z,30.2513,-88.0778,1.5322297,10.89,1111122 
DISL,ioos:station:DISL:DISL:1,2013-03-03T10:30:00Z,30.2513,-88.0778,1.5502129,10.97,1111122 
DISL,ioos:station:DISL:DISL:1,2013-03-03T11:00:00Z,30.2513,-88.0778,1.5538704,10.92,1111122 
DISL,ioos:station:DISL:DISL:1,2013-03-03T11:30:00Z,30.2513,-88.0778,1.5736824,10.91,1111122 
DISL,ioos:station:DISL:DISL:1,2013-03-03T12:00:00Z,30.2513,-88.0778,1.5797784,10.89,1111122 
DISL,ioos:station:DISL:DISL:1,2013-03-03T12:30:00Z,30.2513,-88.0778,1.5937992,10.86,1111122 
DISL,ioos:station:DISL:DISL:1,2013-03-03T13:00:00Z,30.2513,-88.0778,1.6209264,10.88,1111122 
DISL,ioos:station:DISL:DISL:1,2013-03-03T13:30:00Z,30.2513,-88.0778,1.6404337,10.89,1111122 
DISL,ioos:station:DISL:DISL:1,2013-03-03T14:00:00Z,30.2513,-88.0778,1.655064,10.86,1111122 
DISL,ioos:station:DISL:DISL:1,2013-03-03T14:30:00Z,30.2513,-88.0778,1.6776192,10.97,1111122 
DISL,ioos:station:DISL:DISL:1,2013-03-03T15:00:00Z,30.2513,-88.0778,1.6925544,11.3,1111122 
DISL,ioos:station:DISL:DISL:1,2013-03-03T15:30:00Z,30.2513,-88.0778,1.7431512,11.36,1111122 
DISL,ioos:station:DISL:DISL:1,2013-03-03T16:00:00Z,30.2513,-88.0778,1.7629632,11.47,1111122 
DISL,ioos:station:DISL:DISL:1,2013-03-03T16:30:00Z,30.2513,-88.0778,1.7736311,11.5,1111122 
DISL,ioos:station:DISL:DISL:1,2013-03-03T17:00:00Z,30.2513,-88.0778,1.8025873,11.53,1111122 
DISL,ioos:station:DISL:DISL:1,2013-03-03T17:30:00Z,30.2513,-88.0778,1.8102072,11.54,1111122 
DISL,ioos:station:DISL:DISL:1,2013-03-03T18:00:00Z,30.2513,-88.0778,1.8263617,9.55,1111122 
DISL,ioos:station:DISL:DISL:1,2013-03-03T18:30:00Z,30.2513,-88.0778,1.8373344,8.42,1111122 
DISL,ioos:station:DISL:DISL:1,2013-03-03T19:00:00Z,30.2513,-88.0778,1.8681192,9.22,1111122 
DISL,ioos:station:DISL:DISL:1,2013-03-03T19:30:00Z,30.2513,-88.0778,1.88976,8.53,1111122 
DISL,ioos:station:DISL:DISL:1,2013-03-03T20:00:00Z,30.2513,-88.0778,1.9019519,9.61,1111122 
DISL,ioos:station:DISL:DISL:1,2013-03-03T20:30:00Z,30.2513,-88.0778,1.917192,11.6,1111122 
DISL,ioos:station:DISL:DISL:1,2013-03-03T21:00:00Z,30.2513,-88.0778,1.9187161,12.4,1111122 
DISL,ioos:station:DISL:DISL:1,2013-03-03T21:30:00Z,30.2513,-88.0778,1.9181064,12.47,1111122 
DISL,ioos:station:DISL:DISL:1,2013-03-03T22:00:00Z,30.2513,-88.0778,1.9132296,12.54,1111122 
DISL,ioos:station:DISL:DISL:1,2013-03-03T22:30:00Z,30.2513,-88.0778,1.888236,12.57,1111122 
DISL,ioos:station:DISL:DISL:1,2013-03-03T23:00:00Z,30.2513,-88.0778,1.8800064,12.66,1111122 
DISL,ioos:station:DISL:DISL:1,2013-03-03T23:30:00Z,30.2513,-88.0778,1.862328,12.56,1111122 
DISL,ioos:station:DISL:DISL:1,2013-03-04T00:00:00Z,30.2513,-88.0778,1.8345913,12.41,1111122 
DISL,ioos:station:DISL:DISL:1,2013-03-04T00:30:00Z,30.2513,-88.0778,1.834896,12.23,1111122 
DISL,ioos:station:DISL:DISL:1,2013-03-04T01:00:00Z,30.2513,-88.0778,1.6712184,12.12,1111122 
DISL,ioos:station:DISL:DISL:1,2013-03-04T01:30:00Z,30.2513,-88.0778,1.7824705,12.07,1111122 
DISL,ioos:station:DISL:DISL:1,2013-03-04T02:00:00Z,30.2513,-88.0778,1.775765,11.99,1111122 
DISL,ioos:station:DISL:DISL:1,2013-03-04T02:30:00Z,30.2513,-88.0778,1.7416273,11.86,1111122 
DISL,ioos:station:DISL:DISL:1,2013-03-04T03:00:00Z,30.2513,-88.0778,1.7074897,11.32,1111122 
DISL,ioos:station:DISL:DISL:1,2013-03-04T03:30:00Z,30.2513,-88.0778,1.6895065,11.22,1111122 
DISL,ioos:station:DISL:DISL:1,2013-03-04T04:00:00Z,30.2513,-88.0778,1.6709136,11.12,1111122 
DISL,ioos:station:DISL:DISL:1,2013-03-04T04:30:00Z,30.2513,-88.0778,1.6477488,11.04,1111122 
DISL,ioos:station:DISL:DISL:1,2013-03-04T05:00:00Z,30.2513,-88.0778,1.6300704,11.03,1111122 
DISL,ioos:station:DISL:DISL:1,2013-03-04T05:30:00Z,30.2513,-88.0778,1.6133065,10.85,1111122 
DISL,ioos:station:DISL:DISL:1,2013-03-04T06:00:00Z,30.2513,-88.0778,1.5937992,10.71,1111122 
DISL,ioos:station:DISL:DISL:1,2013-03-04T06:30:00Z,30.2513,-88.0778,1.586484,10.63,1111122 
DISL,ioos:station:DISL:DISL:1,2013-03-04T07:00:00Z,30.2513,-88.0778,1.5822169,10.87,1111122 
DISL,ioos:station:DISL:DISL:1,2013-03-04T07:30:00Z,30.2513,-88.0778,1.5898368,10.94,1111122 
DISL,ioos:station:DISL:DISL:1,2013-03-04T08:00:00Z,30.2513,-88.0778,1.5715488,10.96,1111122 
DISL,ioos:station:DISL:DISL:1,2013-03-04T08:30:00Z,30.2513,-88.0778,1.5962377,10.91,1111122 
DISL,ioos:station:DISL:DISL:1,2013-03-04T09:00:00Z,30.2513,-88.0778,1.578864,10.96,1111122 
DISL,ioos:station:DISL:DISL:1,2013-03-04T09:30:00Z,30.2513,-88.0778,1.5834361,10.96,1111122 
DISL,ioos:station:DISL:DISL:1,2013-03-04T10:00:00Z,30.2513,-88.0778,1.5462505,10.96,1111122 
DISL,ioos:station:DISL:DISL:1,2013-03-04T10:30:00Z,30.2513,-88.0778,1.6050768,10.88,1111122 
DISL,ioos:station:DISL:DISL:1,2013-03-04T11:00:00Z,30.2513,-88.0778,1.601724,10.87,1111122 
DISL,ioos:station:DISL:DISL:1,2013-03-04T11:30:00Z,30.2513,-88.0778,1.6355568,10.77,1111122 
DISL,ioos:station:DISL:DISL:1,2013-03-04T12:00:00Z,30.2513,-88.0778,1.6614649,10.69,1111122 
DISL,ioos:station:DISL:DISL:1,2013-03-04T12:30:00Z,30.2513,-88.0778,1.6855441,10.7,1111122 
DISL,ioos:station:DISL:DISL:1,2013-03-04T13:00:00Z,30.2513,-88.0778,1.7016984,10.71,1111122 
DISL,ioos:station:DISL:DISL:1,2013-03-04T13:30:00Z,30.2513,-88.0778,1.7239488,10.65,1111122 
DISL,ioos:station:DISL:DISL:1,2013-03-04T14:00:00Z,30.2513,-88.0778,1.7675352,10.56,1111122 
DISL,ioos:station:DISL:DISL:1,2013-03-04T14:30:00Z,30.2513,-88.0778,1.801368,10.52,1111122 
DISL,ioos:station:DISL:DISL:1,2013-03-04T15:00:00Z,30.2513,-88.0778,1.824228,10.65,1111122 
DISL,ioos:station:DISL:DISL:1,2013-03-04T15:30:00Z,30.2513,-88.0778,1.8528792,10.78,1111122 
DISL,ioos:station:DISL:DISL:1,2013-03-04T16:00:00Z,30.2513,-88.0778,1.8888457,10.48,1111122 
DISL,ioos:station:DISL:DISL:1,2013-03-04T16:30:00Z,30.2513,-88.0778,1.9019519,9.17,1111122 
DISL,ioos:station:DISL:DISL:1,2013-03-04T17:00:00Z,30.2513,-88.0778,1.9330416,8.69,1111122 
DISL,ioos:station:DISL:DISL:1,2013-03-04T17:30:00Z,30.2513,-88.0778,1.9747993,8.3,1111122 
DISL,ioos:station:DISL:DISL:1,2013-03-04T18:00:00Z,30.2513,-88.0778,1.9836384,8.15,1111122 
DISL,ioos:station:DISL:DISL:1,2013-03-04T18:30:00Z,30.2513,-88.0778,2.0366738,8.2,1111122 
DISL,ioos:station:DISL:DISL:1,2013-03-04T19:00:00Z,30.2513,-88.0778,2.0598383,8.07,1111122 
DISL,ioos:station:DISL:DISL:1,2013-03-04T19:30:00Z,30.2513,-88.0778,2.0756881,8.25,1111122 
DISL,ioos:station:DISL:DISL:1,2013-03-04T20:00:00Z,30.2513,-88.0778,2.0997672,8.48,1111122 
DISL,ioos:station:DISL:DISL:1,2013-03-04T20:30:00Z,30.2513,-88.0778,2.1098256,8.91,1111122 
DISL,ioos:station:DISL:DISL:1,2013-03-04T21:00:00Z,30.2513,-88.0778,2.1256752,9.89,1111122 
DISL,ioos:station:DISL:DISL:1,2013-03-04T21:30:00Z,30.2513,-88.0778,2.0503898,10.73,1111122 
DISL,ioos:station:DISL:DISL:1,2013-03-04T22:00:00Z,30.2513,-88.0778,2.1116545,10.9,1111122 
DISL,ioos:station:DISL:DISL:1,2013-03-04T22:30:00Z,30.2513,-88.0778,2.1165311,10.84,1111122 
DISL,ioos:station:DISL:DISL:1,2013-03-04T23:00:00Z,30.2513,-88.0778,2.0403311,11.47,1111122 
DISL,ioos:station:DISL:DISL:1,2013-03-04T23:30:00Z,30.2513,-88.0778,2.0958047,11.48,1111122 
DISL,ioos:station:DISL:DISL:1,2013-03-05T00:00:00Z,30.2513,-88.0778,2.0698967,11.37,1111122 
DISL,ioos:station:DISL:DISL:1,2013-03-05T00:30:00Z,30.2513,-88.0778,2.0400264,11.3,1111122 
DISL,ioos:station:DISL:DISL:1,2013-03-05T01:00:00Z,30.2513,-88.0778,2.0092416,11.31,1111122 
DISL,ioos:station:DISL:DISL:1,2013-03-05T01:30:00Z,30.2513,-88.0778,1.9976592,11.29,1111122 
DISL,ioos:station:DISL:DISL:1,2013-03-05T02:00:00Z,30.2513,-88.0778,1.9976592,11.29,1111122 
DISL,ioos:station:DISL:DISL:1,2013-03-05T02:30:00Z,30.2513,-88.0778,1.9434048,10.82,1111122 
DISL,ioos:station:DISL:DISL:1,2013-03-05T03:00:00Z,30.2513,-88.0778,1.93548,10.77,1111122 
DISL,ioos:station:DISL:DISL:1,2013-03-05T03:30:00Z,30.2513,-88.0778,1.903476,10.82,1111122 
DISL,ioos:station:DISL:DISL:1,2013-03-05T04:00:00Z,30.2513,-88.0778,1.8672048,10.82,1111122 
DISL,ioos:station:DISL:DISL:1,2013-03-05T04:30:00Z,30.2513,-88.0778,1.847088,10.86,1111122 
DISL,ioos:station:DISL:DISL:1,2013-03-05T05:00:00Z,30.2513,-88.0778,1.8147792,10.87,1111122 
DISL,ioos:station:DISL:DISL:1,2013-03-05T05:30:00Z,30.2513,-88.0778,1.7928336,10.85,1111122 
DISL,ioos:station:DISL:DISL:1,2013-03-05T06:00:00Z,30.2513,-88.0778,1.7751552,10.85,1111122 
DISL,ioos:station:DISL:DISL:1,2013-03-05T06:30:00Z,30.2513,-88.0778,1.7513808,10.77,1111122 
DISL,ioos:station:DISL:DISL:1,2013-03-05T07:00:00Z,30.2513,-88.0778,1.7318736,10.71,1111122 
DISL,ioos:station:DISL:DISL:1,2013-03-05T07:30:00Z,30.2513,-88.0778,1.7209008,10.71,1111122 
DISL,ioos:station:DISL:DISL:1,2013-03-05T08:00:00Z,30.2513,-88.0778,1.7077944,10.63,1111122 
DISL,ioos:station:DISL:DISL:1,2013-03-05T08:30:00Z,30.2513,-88.0778,1.7123665,10.58,1111122 
DISL,ioos:station:DISL:DISL:1,2013-03-05T09:00:00Z,30.2513,-88.0778,1.7227296,10.49,1111122 
DISL,ioos:station:DISL:DISL:1,2013-03-05T09:30:00Z,30.2513,-88.0778,1.7059656,10.46,1111122 
DISL,ioos:station:DISL:DISL:1,2013-03-05T10:00:00Z,30.2513,-88.0778,1.6919448,10.44,1111122 
DISL,ioos:station:DISL:DISL:1,2013-03-05T10:30:00Z,30.2513,-88.0778,1.7132808,10.42,1111122 
DISL,ioos:station:DISL:DISL:1,2013-03-05T11:00:00Z,30.2513,-88.0778,1.7422369,10.36,1111122 
DISL,ioos:station:DISL:DISL:1,2013-03-05T11:30:00Z,30.2513,-88.0778,1.725168,10.35,1111122 
DISL,ioos:station:DISL:DISL:1,2013-03-05T12:00:00Z,30.2513,-88.0778,1.776984,10.32,1111122 
DISL,ioos:station:DISL:DISL:1,2013-03-05T12:30:00Z,30.2513,-88.0778,1.7736311,10.28,1111122 
DISL,ioos:station:DISL:DISL:1,2013-03-05T13:00:00Z,30.2513,-88.0778,1.7958816,10.31,1111122 
DISL,ioos:station:DISL:DISL:1,2013-03-05T13:30:00Z,30.2513,-88.0778,1.8227041,10.32,1111122 
DISL,ioos:station:DISL:DISL:1,2013-03-05T14:00:00Z,30.2513,-88.0778,1.8416016,10.36,1111122 
DISL,ioos:station:DISL:DISL:1,2013-03-05T14:30:00Z,30.2513,-88.0778,1.8601944,10.32,1111122 
DISL,ioos:station:DISL:DISL:1,2013-03-05T15:00:00Z,30.2513,-88.0778,1.915668,10.22,1111122 
DISL,ioos:station:DISL:DISL:1,2013-03-05T15:30:00Z,30.2513,-88.0778,1.921764,10.25,1111122 
DISL,ioos:station:DISL:DISL:1,2013-03-05T16:00:00Z,30.2513,-88.0778,1.9434048,10.24,1111122 
DISL,ioos:station:DISL:DISL:1,2013-03-05T16:30:00Z,30.2513,-88.0778,1.9720559,10.25,1111122 
DISL,ioos:station:DISL:DISL:1,2013-03-05T17:00:00Z,30.2513,-88.0778,1.9882103,10.61,1111122 
DISL,ioos:station:DISL:DISL:1,2013-03-05T17:30:00Z,30.2513,-88.0778,2.0317967,9.9,1111122 
DISL,ioos:station:DISL:DISL:1,2013-03-05T18:00:00Z,30.2513,-88.0778,2.028139,9.88,1111122 
DISL,ioos:station:DISL:DISL:1,2013-03-05T18:30:00Z,30.2513,-88.0778,2.0784311,9.35,1111122 
DISL,ioos:station:DISL:DISL:1,2013-03-05T19:00:00Z,30.2513,-88.0778,2.1025105,9.2,1111122 
DISL,ioos:station:DISL:DISL:1,2013-03-05T19:30:00Z,30.2513,-88.0778,2.1396961,10.21,1111122 
DISL,ioos:station:DISL:DISL:1,2013-03-05T20:00:00Z,30.2513,-88.0778,2.185416,10.13,1111122 
DISL,ioos:station:DISL:DISL:1,2013-03-05T20:30:00Z,30.2513,-88.0778,2.185416,10.18,1111122 
DISL,ioos:station:DISL:DISL:1,2013-03-05T21:00:00Z,30.2513,-88.0778,2.237232,10.62,1111122 
DISL,ioos:station:DISL:DISL:1,2013-03-05T21:30:00Z,30.2513,-88.0778,2.24028,10.55,1111122 
DISL,ioos:station:DISL:DISL:1,2013-03-05T22:00:00Z,30.2513,-88.0778,2.252472,10.89,1111122 
DISL,ioos:station:DISL:DISL:1,2013-03-05T22:30:00Z,30.2513,-88.0778,2.282952,11.0,1111122 
DISL,ioos:station:DISL:DISL:1,2013-03-05T23:00:00Z,30.2513,-88.0778,2.282952,10.41,1111122 
DISL,ioos:station:DISL:DISL:1,2013-03-05T23:30:00Z,30.2513,-88.0778,2.298192,9.11,1111122 
DISL,ioos:station:DISL:DISL:1,2013-03-06T00:00:00Z,30.2513,-88.0778,2.27076,9.35,1111122 
DISL,ioos:station:DISL:DISL:1,2013-03-06T00:30:00Z,30.2513,-88.0778,2.276856,11.18,1111122 
DISL,ioos:station:DISL:DISL:1,2013-03-06T01:00:00Z,30.2513,-88.0778,2.261616,10.37,1111122 
DISL,ioos:station:DISL:DISL:1,2013-03-06T01:30:00Z,30.2513,-88.0778,2.258568,9.65,1111122 
DISL,ioos:station:DISL:DISL:1,2013-03-06T02:00:00Z,30.2513,-88.0778,2.234184,10.72,1111122 
DISL,ioos:station:DISL:DISL:1,2013-03-06T02:30:00Z,30.2513,-88.0778,2.17932,10.9,1111122 
DISL,ioos:station:DISL:DISL:1,2013-03-06T03:00:00Z,30.2513,-88.0778,2.0945857,9.86,1111122 
DISL,ioos:station:DISL:DISL:1,2013-03-06T03:30:00Z,30.2513,-88.0778,2.145792,10.04,1111122 
DISL,ioos:station:DISL:DISL:1,2013-03-06T04:00:00Z,30.2513,-88.0778,2.0775168,10.23,1111122 
DISL,ioos:station:DISL:DISL:1,2013-03-06T04:30:00Z,30.2513,-88.0778,2.019605,10.38,1111122 
DISL,ioos:station:DISL:DISL:1,2013-03-06T05:00:00Z,30.2513,-88.0778,2.0107656,10.37,1111122 
DISL,ioos:station:DISL:DISL:1,2013-03-06T05:30:00Z,30.2513,-88.0778,1.9424905,10.42,1111122 
DISL,ioos:station:DISL:DISL:1,2013-03-06T06:00:00Z,30.2513,-88.0778,1.9208497,10.46,1111122 
DISL,ioos:station:DISL:DISL:1,2013-03-06T06:30:00Z,30.2513,-88.0778,1.8571464,10.42,1111122 
DISL,ioos:station:DISL:DISL:1,2013-03-06T07:00:00Z,30.2513,-88.0778,1.8166081,10.39,1111122 
DISL,ioos:station:DISL:DISL:1,2013-03-06T07:30:00Z,30.2513,-88.0778,1.7885665,10.36,1111122 
DISL,ioos:station:DISL:DISL:1,2013-03-06T08:00:00Z,30.2513,-88.0778,1.7696689,10.36,1111122 
DISL,ioos:station:DISL:DISL:1,2013-03-06T08:30:00Z,30.2513,-88.0778,1.7477233,10.36,1111122 